Location: Newark
(40.9833°N, 0.0333°W)
Time: 20:30:15
(UTC+00:00)

A-11 Canister half - Visible Passes

Search period start: 28 October 2020 00:00
Search period end: 07 November 2020 00:00
Orbit: 1526 x 1683 km, 47.3° (Epoch: 27 October)

Date Brightness Start Highest point End Pass type
(mag) Time Alt. Az. Time Alt. Az. Time Alt. Az.
28 Oct 9.0 18:26:04 10° WNW 18:35:24 66° NNE 18:40:53 28° E visible
28 Oct 9.2 20:31:22 10° WNW 20:39:11 59° WSW 20:39:11 59° WSW visible
29 Oct 9.1 18:04:23 10° WNW 18:13:44 65° NNE 18:20:31 21° E visible
29 Oct 9.0 20:09:42 10° WNW 20:18:50 68° SW 20:18:50 68° SW visible
29 Oct 11.1 22:16:18 10° W 22:17:08 12° W 22:17:08 12° W visible
30 Oct 9.1 17:42:42 10° WNW 17:52:03 64° NNE 18:00:13 14° E visible
30 Oct 8.9 19:48:03 10° WNW 19:57:18 71° SW 19:58:32 64° S visible
30 Oct 10.9 21:54:28 10° W 21:56:51 16° W 21:56:51 16° W visible
31 Oct 9.1 17:21:00 10° WNW 17:30:22 63° N 17:39:36 10° E visible
31 Oct 9.0 19:26:23 10° WNW 19:35:41 73° SW 19:38:18 51° SSE visible
31 Oct 10.6 21:32:39 10° W 21:36:37 20° WSW 21:36:37 20° WSW visible
01 Nov 9.0 19:04:44 10° WNW 19:14:03 76° SSW 19:18:10 38° SE visible
01 Nov 10.4 21:10:51 10° WNW 21:16:30 24° WSW 21:16:30 24° WSW visible
02 Nov 9.0 18:43:04 10° WNW 18:52:26 79° SSW 18:58:08 27° SE visible
02 Nov 10.3 20:49:05 10° WNW 20:56:22 27° SW 20:56:29 27° SW visible
03 Nov 9.0 18:21:24 10° WNW 18:30:48 81° SSW 18:38:14 18° SE visible
03 Nov 10.2 20:27:19 10° WNW 20:34:48 28° SW 20:36:35 27° SSW visible
04 Nov 9.0 17:59:44 10° WNW 18:09:10 84° SSW 18:18:29 10° SE visible
04 Nov 10.2 20:05:33 10° WNW 20:13:15 30° SW 20:16:51 23° SSW visible
05 Nov 9.0 17:38:04 10° WNW 17:47:32 87° SSW 17:56:51 10° ESE visible
05 Nov 10.2 19:43:49 10° WNW 19:51:40 32° SW 19:57:18 17° S visible
06 Nov 9.1 17:16:24 10° WNW 17:25:53 89° SW 17:35:13 10° ESE visible
06 Nov 10.2 19:22:04 10° WNW 19:30:06 34° SW 19:38:00 10° SSE visible
